Wind_Speed
24 23 22 21 21 22 21 21 20 20 19 19 18 17 16 16 15 14 14 13 13 14 14 14 14 14 16 16 16 16 16 15 14 13 13 13 12 12 12 12 12 12 12 13 13 13 13 12 12 12 13 14 16 17 17 16 16 15 15 15 14 14 12 9 6 6 7 7 6 7 8 8 8 8 8 8 7 7 8 9 10 10 9 8 8 9 9 8
24 23 22 22 22 22 22 21 21 20 20 20 19 18 18 17 16 15 14 14 14 14 14 14 14 15 16 17 16 16 16 15 14 13 13 12 12 12 12 12 12 12 12 12 13 13 13 13 13 13 12 13 15 16 17 17 17 16 16 15 14 13 10 8 7 8 8 7 6 7 8 8 9 9 8 8 7 8 8 9 10 10 10 10 10 10 11 10
25 24 23 22 22 22 22 22 21 21 21 20 20 20 19 18 17 17 16 15 15 15 15 14 15 15 17 17 16 16 15 14 14 13 13 12 12 12 12 12 12 12 12 12 13 13 13 13 13 13 13 13 14 15 17 17 17 16 15 15 14 12 9 9 9 9 8 7 7 7 8 8 9 9 8 7 8 8 8 9 10 11 11 12 12 12 11 11
25 24 23 23 22 21 21 22 22 22 22 21 21 20 20 19 19 18 17 16 16 16 16 15 15 16 17 17 16 16 15 13 13 13 13 12 12 12 12 12 12 12 12 12 12 13 13 13 14 13 13 14 14 15 15 16 16 15 15 15 13 11 10 10 10 9 9 8 8 8 8 8 8 9 8 8 9 8 9 11 12 12 13 13 12 11 11 10
24 24 23 23 22 21 21 22 22 22 22 22 22 21 21 20 20 19 18 18 18 17 17 17 16 17 17 17 17 16 15 13 13 14 13 13 12 12 12 11 12 12 12 12 12 13 13 13 14 14 14 14 15 15 16 16 15 15 15 14 13 11 11 10 10 10 9 9 9 9 9 8 9 9 8 9 8 7 10 12 11 12 13 11 10 10 9 9
23 23 23 23 22 22 22 22 22 22 23 23 22 22 22 21 21 20 20 19 19 19 19 18 18 18 18 18 17 16 15 12 13 15 13 13 13 12 12 11 12 12 12 12 12 13 13 14 14 14 14 14 15 16 16 16 15 15 14 13 12 11 10 10 9 9 9 9 9 10 9 9 10 10 8 7 6 9 12 12 11 12 12 10 10 10 10 10
22 22 23 23 23 23 23 23 23 23 23 23 22 22 22 22 22 21 21 20 20 20 20 19 19 19 19 19 18 17 16 13 12 15 15 13 13 12 12 12 12 12 12 12 13 13 13 14 14 14 14 14 15 16 16 16 15 15 14 12 11 10 9 9 9 9 9 9 10 10 10 10 10 10 8 5 8 12 13 11 12 12 11 11 11 11 12 12
22 22 22 23 23 23 22 22 22 22 22 23 23 23 23 23 22 22 22 21 21 21 20 21 20 20 20 19 18 17 17 15 12 14 15 14 13 12 12 13 12 12 13 13 13 13 14 13 13 14 14 14 14 15 15 14 14 14 12 11 10 9 9 9 8 9 9 9 10 11 10 10 11 12 7 5 9 13 12 11 11 12 12 12 12 13 14 14
20 21 21 21 21 21 21 21 21 22 22 22 22 22 22 22 22 22 22 22 22 22 21 22 21 21 21 20 19 17 17 16 14 13 13 13 13 13 13 13 13 13 13 13 13 13 13 13 13 13 13 14 14 14 14 13 12 13 12 10 9 9 9 9 9 10 10 10 11 11 12 12 12 13 7 6 11 12 10 10 10 12 13 13 13 14 15 16
19 19 19 20 20 20 21 21 21 21 21 22 22 22 22 22 23 23 23 23 23 23 23 22 22 22 21 20 19 18 17 17 15 13 12 12 13 13 13 13 14 14 13 13 13 13 13 13 13 13 13 13 13 13 14 13 11 11 11 10 9 9 9 9 10 10 10 10 11 12 13 12 12 13 8 7 11 10 9 10 11 12 12 13 14 15 15 16
20 19 19 19 19 20 20 20 20 21 21 21 22 22 23 23 23 23 24 24 24 24 24 24 23 22 21 20 19 18 17 17 16 15 13 13 13 14 14 14 14 14 14 13 12 12 12 13 13 12 12 13 13 13 13 12 11 10 10 9 8 8 9 10 10 10 10 10 10 12 14 13 13 10 5 7 9 9 11 11 12 13 13 14 14 15 15 15
21 21 20 20 19 19 19 19 20 20 20 21 21 22 23 23 24 24 24 24 25 25 25 24 24 23 22 21 20 19 18 17 16 15 14 14 14 14 14 14 14 14 13 12 12 12 12 13 13 12 12 12 12 11 11 12 11 10 9 8 8 9 9 10 10 9 10 9 10 12 14 15 13 6 5 9 11 11 12 12 12 13 13 15 15 15 15 15
22 22 21 21 20 20 19 19 19 19 19 20 21 21 22 23 24 24 25 25 25 26 26 25 24 24 23 21 21 20 18 17 17 15 14 14 15 15 15 14 14 13 13 12 12 12 13 13 13 13 12 12 12 11 10 11 11 10 9 9 9 9 10 11 10 10 10 9 10 12 14 15 11 7 8 12 13 12 12 12 13 13 14 15 16 16 16 16
22 22 22 22 21 21 20 20 20 20 20 20 20 21 22 22 23 24 24 25 26 26 26 25 25 24 23 22 22 21 19 18 17 16 15 15 15 15 15 14 14 13 12 12 12 13 13 14 14 14 13 12 13 12 10 11 11 10 9 9 11 9 10 11 10 10 11 11 11 13 18 17 11 11 13 13 13 14 14 15 16 16 16 17 17 17 17 17
22 22 22 22 22 22 21 21 21 20 20 20 21 21 22 22 22 23 24 25 25 25 26 25 24 23 23 23 22 22 21 19 17 16 15 15 15 15 15 15 14 13 13 13 13 13 13 14 14 14 14 14 13 13 12 11 11 11 9 9 12 11 11 11 11 12 12 12 13 14 18 17 11 12 14 13 15 15 15 16 17 18 18 18 19 18 18 18
21 21 22 22 22 22 22 22 21 21 21 20 21 21 21 22 22 23 23 24 24 24 25 25 24 24 22 22 23 23 22 20 18 16 16 15 15 15 15 15 14 13 13 13 13 13 13 14 14 14 14 14 14 13 13 11 11 11 11 12 13 11 10 10 11 13 13 14 16 16 19 18 13 13 13 13 15 16 17 18 18 20 20 20 20 20 19 19
19 20 21 21 22 22 22 22 22 21 21 21 21 21 21 22 22 22 23 23 24 24 25 24 24 23 22 22 23 23 22 20 19 18 16 16 16 16 16 15 14 14 13 13 13 13 14 14 14 14 14 14 14 14 12 12 13 13 13 14 13 11 11 12 12 12 13 15 16 18 23 22 16 15 15 15 17 19 20 20 20 22 22 21 21 21 20 19
18 19 20 21 21 22 22 22 22 22 22 21 21 21 21 22 22 22 23 23 24 24 25 25 24 23 22 23 22 21 21 21 20 19 18 18 17 17 17 16 15 14 14 14 14 14 14 15 14 14 14 15 15 15 13 11 12 13 13 12 11 12 13 13 12 12 13 15 17 19 24 22 17 16 16 16 18 21 21 21 21 22 22 21 21 21 20 20
18 18 19 21 21 22 22 22 22 23 23 22 22 22 22 22 22 23 23 24 24 25 25 25 26 24 21 21 21 20 21 22 21 21 20 19 18 18 18 17 16 15 15 14 14 15 15 15 15 16 16 15 13 11 11 12 11 11 11 11 11 12 12 11 11 12 13 16 18 20 23 23 20 18 15 16 20 22 21 20 20 20 20 20 20 20 20 21
22 19 19 20 21 22 23 23 23 23 23 23 23 23 23 23 23 23 24 24 25 26 25 24 25 26 22 19 19 20 22 22 22 22 22 21 20 19 19 19 18 17 17 16 15 16 15 16 17 16 13 10 9 9 11 12 12 12 12 11 12 11 11 10 10 12 13 17 20 20 23 25 23 19 16 16 20 23 21 20 20 19 19 20 20 20 20 20
28 24 21 21 21 22 23 23 23 24 24 23 23 23 23 23 23 23 23 24 25 25 26 24 24 25 25 22 20 21 22 23 23 23 23 23 22 22 22 21 20 20 19 17 17 16 16 18 16 14 13 10 10 12 14 14 14 13 13 13 12 11 10 10 11 13 13 17 21 20 23 27 24 22 20 19 21 23 22 22 22 21 20 20 19 19 19 19
32 30 27 24 22 23 23 24 23 23 24 23 23 24 23 22 22 22 22 23 25 26 26 26 25 24 24 25 24 23 23 23 24 24 24 24 24 24 24 23 22 22 20 20 19 18 18 18 16 14 13 12 13 15 15 15 15 14 13 13 12 11 10 10 12 13 13 17 21 22 26 29 26 25 23 22 24 23 22 23 23 21 20 18 17 17 19 21
33 33 31 28 26 24 24 24 24 24 24 24 23 23 22 22 22 22 22 22 24 26 26 26 26 25 24 24 25 25 24 24 24 24 25 24 25 25 25 24 23 23 23 22 21 20 19 17 16 16 15 14 14 16 17 16 16 15 14 13 12 11 9 9 12 13 15 18 22 25 30 32 29 26 26 24 25 25 22 22 22 20 18 16 17 19 21 22
33 34 34 33 30 27 26 25 25 25 25 24 24 23 23 22 21 22 22 22 23 25 26 27 26 27 26 24 24 26 26 25 24 24 24 25 25 26 26 25 25 25 25 23 22 22 21 17 15 16 16 17 17 17 18 18 17 16 14 13 11 10 10 11 14 16 19 21 23 26 29 32 31 28 26 23 24 24 21 21 21 18 18 17 19 20 22 23
29 32 34 36 34 32 29 27 27 26 26 25 25 24 23 23 22 21 21 21 24 26 26 27 28 27 27 27 27 26 26 26 26 25 24 25 25 25 26 26 26 27 25 23 23 24 24 21 20 17 15 15 17 19 19 17 17 15 14 13 10 10 12 14 14 16 18 19 21 21 15 20 31 30 26 25 24 23 22 23 21 18 17 18 20 20 21 22
27 27 30 33 36 35 33 31 29 26 26 26 25 25 24 24 22 21 20 18 23 29 28 28 29 28 30 31 30 27 26 27 27 26 25 25 25 26 25 26 27 26 24 22 23 25 26 24 23 22 19 16 14 16 17 15 15 15 14 12 11 13 13 13 13 14 14 14 20 23 12 15 34 36 28 27 27 25 23 23 20 16 16 18 20 20 20 21
32 28 27 28 33 34 33 33 31 29 27 24 24 24 23 24 21 21 19 12 17 29 32 30 30 30 31 33 31 28 27 28 28 28 27 25 26 26 25 26 26 24 23 22 23 25 26 24 23 24 24 22 19 16 15 14 14 16 15 13 13 14 12 12 12 14 17 20 26 29 21 18 29 35 30 29 30 27 24 21 18 17 17 18 19 19 19 20
39 36 32 30 31 31 31 32 32 32 30 26 24 21 20 21 20 20 16 5 9 21 28 32 34 31 31 31 31 32 32 30 28 28 30 27 26 26 26 26 24 22 22 23 26 26 23 21 23 24 24 25 24 19 17 17 17 18 16 15 14 12 11 12 13 15 19 23 22 21 17 12 23 36 35 32 33 30 25 20 16 15 16 18 19 18 18 18
36 39 40 38 34 32 31 31 31 30 30 30 27 23 20 17 18 19 11 5 11 16 20 28 33 34 34 32 31 34 36 33 28 26 28 30 29 28 27 26 23 22 22 24 26 25 22 20 20 21 24 25 23 19 20 20 20 19 17 16 13 11 11 11 14 17 17 17 15 15 14 9 23 39 35 31 33 29 22 16 12 13 15 18 18 16 17 19
29 33 38 40 40 38 37 33 30 28 28 29 28 27 24 18 19 17 7 10 20 19 19 23 27 32 35 35 33 33 36 36 33 28 26 28 30 30 29 25 24 24 24 25 26 26 25 22 20 21 22 22 20 19 20 21 21 20 17 13 10 10 12 12 15 15 11 11 12 14 15 8 14 24 21 22 23 17 15 14 14 16 16 15 14 15 17 20
28 28 30 35 37 39 42 40 36 33 30 28 27 28 27 23 24 16 7 20 25 19 23 24 23 28 30 34 36 35 35 35 34 33 30 29 29 31 32 29 27 26 26 28 28 28 28 26 25 26 24 22 21 21 21 21 22 20 16 12 9 8 9 10 13 10 6 6 7 11 12 10 15 17 13 14 16 16 21 22 20 17 13 10 12 16 18 19
28 29 29 31 31 33 38 40 41 40 38 36 32 32 33 27 23 21 21 27 18 14 25 27 26 29 26 27 31 34 36 35 34 34 34 34 32 33 34 33 32 27 25 32 33 31 32 32 31 29 30 29 27 24 21 21 21 19 16 14 9 5 5 6 5 3 6 9 10 10 7 15 33 41 34 30 28 27 28 23 15 14 13 9 15 18 18 18
28 29 30 32 32 33 34 34 35 38 39 41 37 35 36 24 20 33 40 31 13 8 18 25 29 30 25 25 26 28 32 34 34 33 34 35 34 34 33 33 34 31 27 31 32 30 28 31 35 35 35 34 32 30 27 24 23 23 23 21 15 7 3 5 3 1 6 12 15 13 9 17 37 44 39 31 22 18 18 14 11 17 14 16 19 19 18 18
29 29 31 33 34 34 35 32 32 32 32 36 37 34 33 22 24 41 46 38 24 12 12 19 25 26 25 26 26 26 29 31 32 32 33 35 35 36 36 35 35 35 33 28 27 28 22 21 31 36 35 36 36 35 33 31 28 27 28 27 24 19 12 6 3 3 3 3 8 12 10 15 23 24 22 16 12 13 15 17 17 19 22 19 15 17 16 18
30 30 30 32 33 34 34 33 31 31 30 31 34 34 32 29 33 42 44 45 39 27 16 13 17 23 26 28 27 27 29 29 30 32 33 34 36 37 38 38 37 37 37 31 27 28 26 25 30 29 28 31 33 33 34 33 28 27 28 28 30 32 27 14 7 9 4 2 5 13 16 28 35 36 36 33 34 33 28 30 31 26 20 15 13 15 15 19
31 31 31 32 33 32 33 33 31 32 32 31 33 36 36 35 37 40 43 45 44 39 28 16 17 22 26 28 29 29 30 30 30 31 33 34 35 36 36 36 38 38 39 38 33 29 25 27 33 29 26 27 26 27 30 31 28 27 30 34 36 34 29 19 12 12 7 3 11 16 25 44 47 46 50 46 41 35 28 28 26 19 19 21 18 14 14 19
32 33 33 33 32 31 31 32 31 31 32 33 34 37 39 39 39 38 39 39 42 44 36 25 23 25 25 28 30 30 31 31 30 30 33 33 33 36 38 36 36 38 39 40 40 35 25 23 28 28 26 28 27 26 27 30 30 30 31 36 37 29 23 20 10 5 5 5 11 16 28 40 35 34 44 41 31 28 26 25 24 23 24 19 14 16 18 19
32 33 34 33 32 31 30 29 30 32 32 32 32 35 39 39 38 38 37 36 38 40 36 27 24 25 26 27 28 30 31 32 33 32 32 31 30 33 37 38 38 38 38 38 39 39 31 23 23 23 22 23 26 26 28 30 33 35 33 29 26 17 15 19 13 4 6 4 4 13 23 31 36 42 47 43 37 37 33 28 24 19 13 10 13 21 21 18
34 33 33 33 33 32 31 28 28 31 33 34 34 36 39 40 38 36 35 33 31 31 31 30 27 25 26 26 26 29 32 33 34 34 32 31 31 33 34 34 36 37 38 40 40 40 35 25 19 21 22 20 23 29 32 35 36 37 34 28 25 20 14 19 19 12 8 4 5 10 12 23 42 50 46 41 39 35 27 21 17 9 10 12 20 23 18 18
34 35 35 33 33 33 32 29 27 30 34 37 40 40 41 42 40 37 35 31 28 25 25 29 31 29 28 28 26 25 29 33 35 35 33 32 32 34 33 31 32 33 34 37 40 40 38 31 22 21 22 22 27 32 35 36 34 34 36 33 32 31 22 18 21 22 14 4 3 4 6 25 48 46 38 36 33 29 24 17 13 11 14 19 21 19 19 22
31 35 36 34 33 33 33 32 32 34 35 37 40 41 41 42 42 39 36 32 30 29 27 26 28 28 29 31 30 28 27 29 33 35 35 35 34 33 32 30 31 32 30 31 35 37 39 38 32 26 25 29 35 36 34 34 32 32 36 36 36 38 34 19 12 22 23 12 8 5 5 31 53 46 40 39 34 32 26 17 16 17 18 21 20 19 21 26
29 33 34 33 34 34 33 34 35 37 38 39 39 39 40 41 41 38 35 31 29 29 30 29 29 28 28 29 31 33 30 27 30 34 35 36 37 34 30 25 24 26 28 28 29 31 35 38 36 36 38 38 38 36 33 32 32 32 34 36 38 41 41 28 10 14 22 20 22 15 9 34 56 48 43 42 33 28 23 20 24 24 19 19 20 22 24 28
30 30 30 30 32 33 32 33 34 37 41 42 40 38 38 39 39 36 34 32 31 29 29 30 30 29 30 29 28 30 31 30 30 33 35 36 37 36 32 27 22 20 22 23 24 25 30 34 32 33 36 35 34 35 34 31 30 33 37 40 40 40 42 36 27 23 18 18 24 15 7 35 57 49 45 43 31 27 29 31 32 28 23 21 21 24 25 25
31 30 30 29 28 29 31 34 36 38 42 43 41 38 38 38 38 35 33 32 33 32 30 29 29 29 30 30 28 28 30 29 30 33 34 35 36 35 33 33 31 27 25 24 23 22 26 32 30 21 15 16 20 24 29 34 34 35 38 39 39 41 41 37 38 32 20 22 30 16 11 39 56 49 47 43 32 31 34 32 28 25 25 23 21 23 24 24
33 32 32 31 30 30 32 35 38 39 41 42 41 41 41 40 39 38 36 33 32 30 29 29 29 28 28 28 29 31 31 30 30 30 31 33 35 35 34 34 35 36 35 32 29 25 23 27 30 22 12 10 12 13 20 32 37 37 40 40 39 41 41 40 38 29 21 33 41 28 25 47 59 53 51 48 42 38 35 30 28 25 23 21 21 21 22 24
35 34 33 32 33 34 34 35 37 38 40 39 39 41 41 40 40 40 37 35 33 32 31 31 29 27 27 29 30 31 33 32 31 31 31 33 35 35 34 33 32 33 34 34 34 32 27 26 29 30 27 27 28 24 22 25 28 32 38 42 42 42 42 42 37 31 34 42 43 42 46 54 60 59 56 54 53 48 41 35 30 23 19 20 22 23 24 26
37 36 35 34 33 35 38 38 38 39 41 40 37 38 41 41 38 36 35 35 34 33 33 33 32 30 30 31 31 32 32 33 33 34 35 35 36 34 32 32 30 29 29 30 32 34 32 33 35 36 37 40 43 40 33 29 30 31 32 34 37 38 41 44 41 41 46 39 34 48 56 54 60 64 58 56 56 53 48 41 30 22 21 24 27 28 26 24
38 37 36 34 31 33 37 39 40 41 42 41 39 38 40 41 38 35 34 34 33 33 32 33 34 34 34 33 33 33 33 33 34 36 37 37 37 35 34 32 30 29 29 28 31 32 33 36 40 40 41 45 47 43 39 38 38 37 35 33 33 34 36 42 44 47 50 43 41 54 57 54 61 64 58 56 56 54 53 49 41 36 35 33 32 34 32 28
40 38 36 34 34 33 33 34 39 44 43 40 40 40 41 41 40 39 36 34 33 33 33 34 36 36 35 34 35 36 35 34 34 36 37 37 37 36 36 35 34 33 32 31 32 33 34 38 40 39 39 44 46 44 42 42 42 41 40 38 36 35 36 41 44 46 48 48 49 54 54 56 60 60 57 55 53 53 55 52 49 45 43 41 37 39 40 39
41 41 38 36 36 36 33 32 37 44 46 42 39 41 43 42 42 40 36 36 37 34 33 36 38 37 35 34 35 38 38 36 36 37 36 36 37 37 37 37 36 35 34 33 34 34 34 36 38 37 36 40 45 46 44 44 44 43 43 42 40 39 40 44 48 47 46 47 49 50 52 59 61 58 57 55 53 55 56 54 54 51 49 50 47 46 47 47
42 41 39 37 37 37 36 35 35 40 46 46 43 43 43 44 44 41 36 36 35 33 33 35 36 36 35 35 37 38 37 36 37 39 38 37 38 38 37 36 35 35 35 35 35 36 35 34 36 34 32 37 46 45 44 46 44 41 42 45 47 48 49 50 50 49 47 48 48 47 51 60 63 59 56 56 57 58 59 59 58 56 55 55 54 52 51 51
42 42 40 37 36 37 38 37 36 39 43 44 45 47 46 43 42 40 37 35 34 32 33 33 33 34 35 36 37 37 35 36 37 38 39 39 40 40 39 38 37 37 38 37 37 39 38 37 38 34 30 38 48 45 41 38 29 29 43 51 54 57 56 51 51 52 53 52 48 48 55 60 59 56 57 60 61 61 62 60 57 56 55 52 52 53 51 49
Wind_Direction
201 201 199 196 194 194 193 193 192 190 189 188 188 188 189 189 190 192 191 189 186 185 184 181 176 173 173 175 176 174 173 173 172 172 175 177 179 180 180 179 178 177 178 180 180 180 182 185 190 194 194 197 199 201 204 206 209 211 214 219 226 232 236 240 242 233 233 240 234 223 222 219 214 209 205 206 208 210 210 204 198 198 205 207 199 200 213 222
203 204 204 201 199 197 195 194 194 193 192 191 191 191 191 191 193 195 195 194 192 191 189 185 180 177 177 179 179 177 176 176 175 177 180 181 183 184 185 183 181 182 182 183 185 184 185 187 193 196 196 198 201 203 206 209 211 216 220 224 230 235 237 236 231 229 233 238 234 229 227 220 214 212 215 214 211 212 212 209 206 205 209 213 211 209 215 221
206 206 206 205 203 200 197 197 196 195 194 194 194 193 193 193 195 197 197 197 196 196 195 191 185 181 180 182 182 180 179 179 180 183 185 185 187 188 188 187 186 186 186 188 189 189 189 191 195 197 200 201 202 205 207 210 213 218 223 228 233 235 233 232 232 236 240 239 237 235 230 223 218 220 224 221 219 217 208 207 207 204 206 212 216 215 214 219
208 207 208 208 206 203 200 199 198 198 197 197 197 196 195 195 196 197 198 198 198 198 197 195 190 185 184 185 184 182 182 184 187 189 189 189 190 191 190 190 190 190 190 192 194 194 193 195 198 199 202 204 205 207 208 210 214 218 223 228 233 233 232 234 236 242 245 242 240 237 234 232 231 232 231 228 229 219 205 208 207 204 210 215 218 219 215 217
207 207 207 208 207 205 204 203 201 200 199 199 199 198 198 197 197 198 198 198 198 198 198 196 192 188 188 188 187 185 185 190 195 194 194 194 193 194 193 193 193 194 194 195 197 198 197 199 202 202 204 208 209 210 211 212 214 218 222 227 228 229 232 235 239 245 245 243 241 236 236 238 243 244 241 237 229 211 210 214 210 208 216 218 218 222 222 221
206 206 206 206 206 206 205 205 204 202 201 201 201 200 200 199 199 199 199 199 198 198 197 195 193 190 190 190 189 187 187 193 198 196 197 197 196 196 195 195 196 196 197 198 201 201 200 201 203 205 206 210 213 214 215 215 217 219 223 226 227 229 232 234 238 241 240 241 239 236 238 243 251 253 250 238 205 204 219 218 212 214 218 217 215 220 224 226
202 204 205 205 205 206 206 206 205 204 202 202 202 202 202 201 200 199 199 199 199 198 196 195 193 191 191 192 192 191 191 196 199 198 199 197 196 198 196 197 198 198 200 200 202 202 201 201 202 204 205 209 213 215 215 216 217 218 222 225 225 226 228 230 234 235 236 236 237 238 243 250 258 258 251 217 187 211 228 224 218 219 221 221 220 223 227 229
201 202 204 206 206 207 207 207 206 205 203 202 202 202 203 203 201 200 199 199 199 198 197 195 193 193 193 194 194 194 195 198 199 197 199 198 196 197 196 198 198 199 201 201 202 201 201 200 200 203 205 208 210 211 211 211 212 213 217 220 221 223 224 227 227 227 230 232 237 241 246 254 260 261 251 185 197 221 233 231 228 226 226 228 227 229 232 233
202 202 203 205 207 208 208 208 208 207 205 203 202 202 203 203 203 201 200 199 199 198 197 196 195 194 194 195 195 196 198 200 199 194 195 196 196 197 197 197 198 199 199 200 201 199 199 200 200 203 206 208 208 208 207 205 208 210 212 215 217 220 222 226 225 225 229 232 239 243 248 255 259 262 252 195 215 231 240 239 237 236 233 232 232 233 236 238
204 204 203 204 206 207 208 208 209 208 206 204 202 202 202 203 203 202 201 200 199 198 197 196 196 195 195 197 197 198 201 201 201 198 194 194 195 197 197 196 197 197 198 198 198 197 198 198 199 204 208 211 209 208 205 202 205 208 210 213 214 219 223 227 226 227 230 235 244 247 251 254 254 259 252 216 226 236 244 244 242 244 243 240 238 238 239 243
206 206 205 206 206 206 207 208 209 208 207 205 203 201 201 201 201 201 201 200 199 197 196 196 197 196 197 198 198 200 203 202 203 201 197 195 195 195 195 196 195 195 196 196 196 196 197 199 201 205 209 211 209 208 206 203 203 203 205 211 214 219 224 229 230 231 235 239 246 251 254 253 250 252 232 214 229 236 243 248 250 252 253 251 249 246 245 244
209 209 208 208 208 208 207 208 208 208 208 207 204 203 201 200 200 200 200 200 199 197 196 196 197 197 198 199 200 203 205 203 203 202 200 198 196 195 195 195 194 193 194 194 194 196 198 202 203 204 208 210 207 205 206 205 204 203 203 209 216 223 228 233 235 234 237 240 246 255 261 257 249 241 213 226 238 243 250 256 257 257 255 255 255 255 253 249
211 211 211 210 210 210 209 208 208 207 207 207 206 205 203 202 200 200 199 199 198 197 196 196 197 198 198 201 202 205 206 204 204 202 200 200 199 198 197 196 193 191 192 193 194 195 199 204 206 206 208 209 205 203 206 205 204 207 209 210 217 228 236 239 241 242 244 246 248 255 263 261 253 245 236 237 242 247 255 259 258 257 255 256 258 258 258 255
212 212 213 212 211 211 211 210 209 207 207 207 207 206 205 204 202 200 199 198 197 197 197 198 199 200 200 202 204 206 207 206 205 203 201 202 202 202 201 200 196 193 194 195 196 197 200 205 208 207 209 210 208 207 209 205 204 208 213 220 222 227 238 242 244 249 249 250 251 253 259 261 256 252 248 246 251 254 256 257 257 258 258 259 259 260 260 259
212 212 212 213 212 212 211 210 211 209 208 208 207 206 205 204 203 201 199 198 198 198 199 200 202 202 203 205 205 207 209 208 206 206 205 204 203 204 205 203 200 198 197 199 200 200 202 205 207 207 208 212 210 210 210 207 208 207 210 226 227 225 238 246 245 247 248 250 251 250 256 262 258 253 252 252 257 258 257 256 257 258 258 258 259 260 260 260
211 212 212 212 212 212 211 210 210 209 209 208 207 205 204 203 203 202 201 201 201 202 202 203 205 204 205 208 209 208 209 209 208 208 208 206 205 204 204 203 200 199 200 202 203 203 205 207 208 208 209 211 212 212 211 211 213 210 213 227 232 230 238 247 246 247 248 250 252 250 255 262 261 259 261 261 262 262 259 257 258 259 259 259 260 261 262 262
210 211 212 212 210 210 210 209 207 207 207 207 206 206 204 203 203 203 204 205 206 206 205 206 206 206 208 211 210 209 210 210 210 211 210 208 207 206 205 203 201 202 202 203 205 206 209 210 212 213 213 214 214 211 207 211 219 221 224 230 237 239 240 245 250 253 254 254 256 257 259 263 265 266 268 267 266 264 262 260 260 260 261 263 265 266 267 265
210 210 210 209 209 207 206 206 205 205 205 206 206 206 206 206 206 207 208 209 210 209 208 209 207 206 211 213 211 210 210 211 212 213 212 210 208 208 207 206 205 205 205 207 208 209 212 214 215 217 217 217 217 214 211 218 223 224 228 232 238 242 243 247 253 257 258 259 260 262 265 268 269 267 266 266 267 265 264 264 264 265 268 270 271 272 272 269
213 211 209 207 207 205 204 203 203 204 205 206 207 207 208 209 209 210 211 212 211 210 210 211 210 209 213 215 212 211 211 212 214 214 214 214 211 210 210 210 211 210 209 211 212 212 214 215 216 217 220 222 223 222 224 230 228 223 226 229 232 239 248 254 257 259 262 265 265 265 270 273 272 268 263 262 266 267 268 268 270 272 273 274 273 273 271 269
217 213 211 209 206 205 204 202 202 203 205 206 208 208 209 209 210 212 213 213 213 213 214 215 215 216 217 216 213 213 213 213 215 216 217 216 215 214 214 216 216 216 215 215 216 217 217 220 220 220 224 230 233 225 224 228 227 227 229 234 240 246 254 260 261 263 267 270 268 269 273 273 272 271 267 261 262 267 273 276 276 275 273 272 270 270 270 271
217 214 213 212 209 206 205 205 204 203 205 207 208 210 211 211 212 214 215 215 216 217 218 218 219 220 221 220 217 216 215 215 216 217 218 218 217 217 218 219 219 220 220 219 222 223 223 225 223 221 225 227 222 218 221 225 227 231 235 240 248 252 256 263 265 266 269 271 271 273 274 271 271 274 270 264 262 266 273 275 275 275 273 272 270 270 271 271
213 214 214 213 213 212 209 207 207 207 207 208 210 212 213 213 214 216 216 218 219 220 220 221 222 223 223 223 222 220 218 218 217 217 218 219 218 219 221 221 221 223 223 223 226 228 231 231 226 224 228 226 222 223 226 229 231 234 237 242 249 253 261 267 268 269 270 273 275 278 278 273 272 274 272 270 268 267 269 271 272 273 271 270 271 272 270 268
209 212 214 213 213 215 216 214 212 212 212 211 213 214 214 215 216 217 218 220 222 222 222 224 224 224 224 223 224 223 222 220 220 219 220 220 220 220 223 223 223 224 225 226 228 231 235 234 230 231 233 229 226 227 229 232 235 235 237 242 247 251 261 269 271 273 274 278 281 285 286 280 275 274 272 272 272 270 269 269 269 269 271 271 268 267 266 268
211 210 212 214 215 215 217 219 218 217 216 216 217 217 217 218 217 219 220 224 226 224 223 223 224 223 223 222 223 223 223 222 221 220 220 221 221 221 224 224 225 226 226 228 231 234 237 235 234 237 237 232 227 227 229 232 236 238 239 240 246 251 256 266 273 279 283 285 286 290 293 286 281 278 275 272 271 271 271 269 268 270 272 270 263 261 264 270
217 213 210 212 215 216 217 219 221 221 220 220 220 219 220 221 221 222 224 230 233 228 224 224 224 223 222 221 223 223 223 223 221 221 220 221 221 222 224 224 225 227 227 228 232 236 236 233 234 238 236 230 229 230 231 233 237 241 241 238 242 253 260 269 277 287 292 290 289 293 297 287 284 281 276 276 273 269 269 270 273 274 269 263 259 261 266 274
218 217 214 212 212 214 217 218 219 221 221 222 223 222 222 223 225 226 228 239 244 234 227 225 225 223 221 220 220 221 225 226 222 221 221 219 219 221 223 224 225 227 227 228 233 236 235 231 232 235 233 230 231 230 228 229 234 237 241 242 248 257 265 272 278 286 288 287 289 289 283 280 285 282 275 277 276 271 269 273 277 274 262 256 259 265 273 280
214 214 215 216 213 212 214 215 216 218 219 219 221 222 224 225 226 228 228 246 256 239 231 228 226 224 223 222 219 218 224 227 221 220 220 218 219 220 222 224 225 226 226 225 231 235 234 230 229 230 230 232 232 228 224 225 231 239 247 254 258 262 266 269 277 281 281 286 287 284 280 275 278 279 276 278 278 272 270 275 278 270 258 256 262 270 278 284
218 218 218 219 217 214 213 213 213 216 218 219 219 219 223 225 226 226 221 226 253 238 232 229 227 227 226 224 221 219 224 227 222 221 221 220 221 221 223 226 225 227 228 227 232 237 237 232 230 231 231 234 236 235 233 233 241 250 257 261 259 261 264 268 277 278 282 290 285 279 283 274 271 279 282 280 277 275 276 278 272 260 254 258 266 273 279 284
221 223 224 223 221 218 215 212 212 214 216 218 219 218 219 222 222 214 203 211 232 231 229 226 224 225 225 224 222 222 226 228 225 224 223 222 223 224 225 226 225 227 227 229 236 241 241 235 231 233 234 237 239 239 237 239 247 254 257 257 254 257 264 268 273 272 279 284 269 267 282 282 281 284 281 276 277 279 280 277 266 258 258 263 267 272 278 282
222 222 224 226 226 224 218 214 213 214 215 217 219 220 218 218 209 192 167 222 226 224 223 222 221 221 222 222 221 222 226 228 227 227 225 224 225 226 227 227 226 228 229 231 235 238 239 236 231 231 234 238 239 235 233 236 243 247 245 243 247 258 263 263 265 267 277 273 259 269 278 271 283 288 282 276 277 277 272 274 279 273 260 258 262 267 277 282
225 222 221 225 228 227 224 220 217 216 217 216 217 218 217 214 202 183 193 225 225 228 221 219 221 222 223 223 223 224 225 227 228 227 228 227 225 226 225 223 222 226 231 234 236 238 237 236 234 235 236 237 237 233 230 232 235 236 234 233 239 253 260 263 260 253 249 255 257 270 268 237 244 264 274 274 273 276 280 284 283 266 241 242 259 264 274 280
228 224 222 222 224 226 227 225 221 220 220 218 219 218 210 204 196 197 218 223 227 235 220 219 225 225 225 223 225 228 227 228 227 225 229 230 228 228 227 226 224 221 227 233 234 237 239 239 238 238 239 238 236 232 227 227 230 231 231 225 218 223 247 244 235 225 229 242 256 261 237 228 247 259 266 271 277 282 282 280 260 213 198 250 273 264 265 271
228 226 225 223 223 225 227 229 225 224 223 219 221 213 197 191 200 212 219 219 220 228 213 218 226 224 222 219 220 226 226 229 230 226 228 230 230 232 231 233 231 227 230 233 232 234 240 242 239 237 238 237 235 231 227 228 229 231 231 223 208 191 214 229 203 274 262 247 249 242 223 244 259 267 271 272 276 277 273 264 216 196 220 275 276 256 254 262
227 226 227 226 225 226 228 230 228 230 228 223 225 213 192 192 214 217 220 221 220 226 211 212 219 217 216 218 219 221 222 227 229 228 228 228 228 231 231 232 232 231 234 236 235 234 236 242 241 238 239 240 241 239 239 243 242 242 240 232 223 218 222 226 189 203 257 251 225 210 211 248 259 266 270 262 259 271 275 270 262 265 277 284 260 239 254 265
228 226 227 228 228 227 227 229 227 229 229 225 228 218 198 199 212 215 220 222 221 227 222 201 206 210 211 215 217 218 219 222 225 225 226 227 229 232 233 232 232 231 231 232 235 235 234 243 247 245 243 244 245 245 245 243 241 243 239 229 228 231 233 238 244 238 242 37 222 211 231 254 259 266 269 268 272 277 278 277 281 286 287 283 261 244 252 261
229 227 227 228 228 227 227 226 225 226 228 225 225 221 212 213 218 219 221 222 221 225 222 202 197 206 209 212 213 213 216 221 223 221 222 226 231 234 235 236 235 234 232 230 231 230 231 243 247 245 243 242 240 240 240 234 230 232 227 222 228 235 233 232 249 254 245 271 255 237 250 262 268 273 272 273 277 278 277 279 281 281 283 288 286 275 266 257
230 229 228 229 229 228 226 226 223 223 227 227 223 224 228 230 231 229 227 225 224 225 223 214 209 211 211 211 212 212 212 217 221 221 222 224 228 232 234 235 235 235 236 235 233 232 232 242 247 243 240 239 235 232 231 230 229 225 223 226 232 235 231 226 234 254 222 242 259 243 250 261 266 270 270 272 277 280 282 284 281 283 288 288 285 296 296 271
231 230 230 229 229 229 228 226 225 222 225 230 229 229 234 236 236 237 235 231 227 224 220 217 218 220 219 216 215 213 210 213 216 218 221 222 227 233 234 234 236 236 237 236 233 235 235 240 249 243 236 236 232 227 223 224 225 224 226 230 227 223 219 214 211 227 228 218 258 249 251 258 258 260 266 272 278 283 286 286 286 288 279 264 286 302 300 278
231 231 231 229 229 229 228 226 227 226 225 230 233 232 234 236 237 239 238 236 232 227 222 221 221 220 221 223 222 217 213 214 217 217 220 222 228 236 237 237 239 238 238 236 232 233 234 235 245 243 234 228 222 220 220 220 219 220 226 230 227 225 217 209 210 218 231 214 238 258 258 260 260 262 270 277 280 283 285 284 286 272 233 263 297 299 287 267
232 232 231 230 228 228 227 223 224 226 225 227 231 233 235 237 238 240 242 241 238 235 231 228 225 219 217 220 222 220 217 218 220 220 221 224 231 240 241 238 240 240 240 237 233 233 233 232 238 238 227 217 219 225 228 229 225 221 224 226 226 226 221 221 224 221 224 229 238 258 270 263 264 268 275 279 279 280 281 276 269 257 264 290 302 287 268 257
231 231 232 230 228 228 226 221 219 222 226 228 230 232 236 239 240 241 242 242 240 239 238 236 233 228 223 223 224 225 223 222 224 224 224 227 231 237 240 240 241 242 240 235 231 231 230 231 234 232 226 225 232 239 240 240 238 235 235 235 236 232 222 220 228 222 222 227 231 229 274 267 267 271 275 276 277 277 274 265 263 274 290 304 303 284 265 255
231 231 232 230 229 228 226 223 222 224 227 229 229 231 234 238 241 242 242 241 239 239 240 240 241 237 233 233 233 231 229 227 227 226 226 229 232 235 239 240 239 240 241 239 239 238 233 232 232 233 236 240 243 244 242 241 240 239 240 242 243 238 226 216 211 221 222 226 236 239 258 265 266 269 272 274 274 270 266 267 275 284 296 300 296 286 272 258
231 231 231 230 229 229 226 223 224 226 228 230 231 234 236 238 242 244 243 240 238 238 237 237 238 236 235 237 236 233 231 230 229 229 229 231 234 235 237 239 236 234 238 240 245 243 230 225 228 234 241 245 245 247 245 243 239 234 235 237 237 236 233 228 230 237 230 221 230 230 239 260 263 265 267 270 269 264 268 276 280 285 291 294 290 280 269 253
230 230 229 227 223 223 225 225 224 226 229 231 232 234 235 238 241 243 242 241 240 239 238 237 236 236 235 236 236 235 234 233 235 236 234 235 238 237 237 240 240 239 240 241 246 245 229 224 225 228 238 243 241 243 241 236 233 231 234 236 235 238 239 234 232 236 238 237 236 227 231 255 261 264 265 267 267 267 273 278 280 286 291 291 285 273 258 243
226 226 227 225 218 214 221 227 228 229 231 232 233 235 236 237 239 241 242 242 242 240 239 240 241 240 238 236 236 237 236 235 240 243 242 241 243 244 241 241 242 243 244 245 248 250 242 233 227 219 215 224 224 224 231 233 232 231 236 238 237 237 235 233 231 226 232 245 241 233 241 255 260 263 263 265 266 269 273 275 278 285 286 280 275 267 250 237
222 222 223 223 219 214 217 224 228 230 231 232 233 235 236 237 239 240 240 240 240 240 240 242 243 241 239 237 236 236 236 236 238 241 244 243 245 248 247 245 244 244 244 245 248 250 246 243 239 233 233 238 240 242 248 248 242 239 243 244 242 239 236 235 230 223 234 245 244 242 248 257 262 262 262 264 265 267 271 274 277 278 273 271 270 261 245 238
220 221 221 220 217 215 216 220 223 227 229 230 231 233 235 236 237 239 240 239 240 240 240 242 241 238 236 235 235 235 236 237 236 237 242 245 247 250 253 252 249 247 246 246 248 248 243 242 245 244 245 248 250 253 257 261 260 256 256 254 250 246 241 234 230 236 243 242 244 252 253 255 261 263 263 263 265 268 269 270 268 259 259 269 270 260 245 240
221 222 221 218 217 219 220 222 224 226 228 228 229 231 234 235 235 235 237 239 240 239 238 239 240 239 238 236 235 236 236 234 234 236 240 243 245 247 250 253 251 248 248 248 248 247 243 243 245 244 246 251 254 255 256 257 259 260 261 262 261 258 250 241 240 249 249 238 243 258 258 255 261 266 267 267 269 271 271 270 267 263 265 267 263 257 252 251
222 223 220 216 218 223 226 226 225 223 224 227 229 231 233 234 235 236 236 238 239 238 237 238 241 241 241 239 238 237 237 233 233 236 240 243 245 246 248 250 250 249 248 248 249 247 241 244 248 244 243 250 254 255 255 253 254 256 257 260 262 260 258 254 253 257 254 248 252 261 264 263 263 266 268 270 272 273 272 272 271 271 271 269 264 260 259 259
223 223 221 216 216 219 222 223 221 221 222 223 226 231 234 235 236 237 236 236 237 238 238 240 244 245 245 244 241 239 239 238 238 240 243 244 246 247 248 250 251 252 251 248 248 246 238 240 249 247 243 250 255 255 254 253 252 253 255 257 258 256 254 253 254 256 254 253 255 259 263 265 264 262 265 268 270 271 272 272 272 273 273 274 272 268 267 267
223 223 221 218 216 217 219 220 219 219 221 221 223 228 232 235 236 236 236 236 237 238 239 242 246 248 247 247 245 245 246 245 245 245 246 248 251 252 253 255 255 255 254 250 247 246 243 243 248 245 238 246 256 257 254 252 251 251 252 254 252 250 249 248 251 253 250 251 253 253 255 261 263 265 268 270 271 273 274 275 276 278 279 280 280 278 275 275
223 222 219 217 217 216 217 219 217 217 220 223 226 227 228 231 234 235 235 237 237 238 239 243 245 246 247 246 246 248 249 248 247 247 246 247 250 252 254 255 255 254 254 252 248 246 245 245 244 237 229 244 256 258 252 248 246 245 248 251 251 249 249 249 251 254 253 251 250 249 254 263 271 274 275 275 275 276 277 279 281 283 283 283 283 282 282 279
Height
3129 3131 3132 3134 3135 3137 3138 3140 3141 3143 3145 3146 3147 3149 3151 3152 3154 3155 3157 3159 3160 3161 3163 3164 3165 3167 3168 3169 3171 3172 3173 3174 3175 3175 3176 3177 3178 3179 3179 3180 3181 3182 3183 3184 3184 3185 3186 3187 3188 3189 3190 3190 3191 3193 3194 3195 3195 3196 3197 3197 3198 3198 3199 3199 3200 3200 3200 3201 3201 3202 3202 3202 3202 3202 3202 3202 3203 3203 3203 3203 3203 3203 3203 3204 3204 3204 3204 3204
3128 3130 3131 3132 3134 3135 3137 3139 3140 3142 3144 3145 3146 3148 3149 3151 3153 3154 3156 3158 3159 3160 3162 3163 3165 3166 3167 3169 3170 3171 3173 3174 3174 3175 3176 3177 3178 3178 3179 3180 3181 3182 3182 3183 3184 3185 3186 3187 3188 3189 3189 3190 3191 3192 3193 3194 3195 3195 3196 3196 3197 3197 3198 3199 3199 3199 3199 3200 3201 3201 3201 3201 3201 3201 3201 3202 3202 3202 3202 3202 3202 3203 3203 3203 3203 3203 3203 3204
3127 3128 3130 3131 3132 3134 3136 3137 3139 3141 3142 3144 3145 3147 3148 3150 3152 3153 3155 3157 3158 3160 3161 3162 3164 3166 3167 3168 3170 3171 3172 3173 3174 3175 3176 3176 3177 3178 3179 3179 3180 3181 3182 3183 3184 3185 3186 3187 3187 3188 3189 3190 3191 3191 3192 3193 3194 3195 3195 3196 3196 3196 3197 3197 3198 3198 3198 3199 3200 3200 3200 3200 3201 3201 3201 3201 3201 3201 3201 3201 3201 3202 3202 3202 3202 3202 3202 3203
3126 3127 3129 3130 3131 3133 3134 3136 3137 3139 3141 3142 3144 3146 3147 3149 3150 3152 3154 3156 3157 3159 3160 3162 3163 3165 3166 3168 3169 3171 3172 3173 3173 3174 3175 3176 3177 3177 3178 3179 3180 3181 3182 3183 3183 3184 3185 3186 3187 3188 3189 3189 3190 3191 3192 3193 3193 3194 3194 3195 3195 3195 3196 3196 3197 3197 3198 3198 3199 3199 3200 3200 3200 3200 3200 3200 3200 3200 3201 3200 3200 3201 3200 3200 3201 3201 3201 3202
3124 3126 3127 3129 3130 3132 3133 3134 3136 3138 3139 3141 3143 3144 3146 3148 3149 3151 3153 3155 3157 3158 3160 3161 3163 3164 3166 3167 3169 3170 3172 3172 3172 3173 3174 3175 3176 3176 3177 3178 3179 3180 3181 3182 3183 3184 3185 3186 3186 3187 3188 3189 3190 3190 3191 3192 3192 3193 3193 3194 3194 3194 3195 3195 3196 3196 3197 3197 3198 3198 3199 3199 3199 3199 3199 3199 3199 3200 3200 3199 3200 3200 3199 3200 3200 3200 3201 3201
3123 3124 3126 3127 3129 3130 3131 3133 3134 3136 3138 3140 3141 3143 3145 3147 3148 3150 3152 3154 3156 3157 3159 3161 3162 3164 3165 3167 3168 3169 3171 3171 3171 3172 3173 3174 3175 3176 3177 3178 3179 3180 3181 3182 3182 3183 3184 3185 3186 3186 3187 3188 3189 3190 3190 3191 3192 3192 3192 3192 3193 3193 3194 3194 3195 3195 3196 3196 3197 3197 3198 3198 3198 3198 3198 3198 3198 3198 3198 3198 3199 3199 3199 3199 3199 3199 3200 3200
3121 3123 3124 3126 3127 3128 3130 3132 3133 3135 3136 3138 3140 3142 3143 3145 3147 3149 3151 3153 3154 3156 3158 3160 3161 3163 3165 3166 3167 3169 3169 3170 3170 3171 3172 3173 3174 3175 3176 3177 3178 3179 3180 3181 3182 3183 3184 3184 3185 3186 3186 3187 3188 3189 3189 3190 3191 3191 3191 3192 3192 3192 3193 3193 3194 3194 3195 3195 3196 3196 3197 3197 3196 3196 3197 3197 3197 3197 3197 3197 3198 3198 3198 3198 3198 3199 3199 3199
3119 3121 3123 3125 3126 3128 3129 3131 3132 3134 3135 3137 3138 3140 3142 3144 3146 3147 3149 3151 3153 3155 3157 3158 3160 3162 3164 3165 3166 3167 3168 3169 3169 3170 3171 3172 3173 3174 3175 3176 3177 3178 3179 3180 3181 3182 3183 3183 3184 3185 3186 3186 3187 3188 3188 3189 3190 3190 3190 3191 3191 3191 3192 3192 3193 3193 3194 3194 3195 3195 3196 3195 3195 3195 3195 3196 3196 3195 3195 3196 3196 3197 3197 3197 3197 3197 3197 3197
3118 3120 3122 3123 3125 3127 3128 3130 3131 3133 3134 3135 3137 3138 3140 3142 3144 3146 3148 3150 3151 3153 3155 3157 3159 3161 3163 3164 3165 3166 3167 3168 3169 3169 3170 3171 3172 3173 3174 3175 3176 3177 3178 3179 3180 3181 3182 3183 3183 3184 3185 3185 3186 3187 3187 3188 3188 3189 3189 3189 3190 3190 3191 3191 3192 3192 3193 3193 3194 3194 3194 3194 3194 3193 3194 3194 3194 3194 3194 3195 3195 3195 3196 3196 3196 3196 3196 3196
3117 3119 3121 3122 3124 3126 3127 3129 3130 3132 3133 3134 3136 3137 3139 3141 3143 3145 3146 3148 3150 3152 3154 3156 3158 3160 3162 3163 3164 3165 3166 3167 3168 3169 3169 3170 3171 3172 3173 3174 3175 3176 3177 3178 3179 3180 3181 3182 3182 3183 3184 3185 3185 3186 3186 3187 3187 3187 3188 3188 3189 3189 3190 3190 3191 3191 3192 3192 3193 3193 3193 3193 3193 3192 3192 3193 3192 3193 3193 3193 3193 3194 3194 3194 3194 3194 3194 3194
3116 3118 3120 3121 3123 3124 3126 3127 3129 3130 3132 3133 3135 3136 3137 3139 3141 3143 3145 3147 3149 3151 3153 3154 3156 3158 3160 3162 3163 3164 3165 3166 3167 3168 3169 3169 3170 3171 3172 3173 3174 3175 3176 3177 3178 3179 3180 3181 3182 3183 3184 3184 3185 3185 3186 3186 3186 3187 3187 3188 3188 3188 3189 3189 3189 3190 3191 3191 3191 3191 3191 3191 3191 3191 3191 3191 3191 3192 3192 3192 3192 3192 3192 3192 3192 3192 3192 3193
3114 3116 3118 3120 3122 3123 3124 3126 3128 3129 3131 3132 3134 3135 3136 3138 3140 3142 3143 3145 3147 3149 3151 3153 3155 3157 3159 3160 3162 3162 3163 3165 3166 3167 3168 3169 3170 3170 3171 3172 3173 3174 3175 3176 3177 3178 3179 3180 3181 3182 3183 3183 3184 3185 3185 3185 3185 3186 3186 3187 3187 3187 3188 3188 3189 3189 3190 3190 3191 3190 3190 3190 3190 3190 3190 3190 3190 3190 3190 3190 3190 3190 3190 3190 3190 3190 3190 3190
3113 3115 3116 3118 3120 3122 3123 3125 3126 3128 3129 3131 3132 3134 3135 3137 3138 3140 3142 3144 3146 3148 3150 3151 3153 3155 3157 3159 3160 3161 3162 3164 3165 3166 3167 3168 3169 3170 3171 3172 3172 3173 3174 3175 3176 3177 3178 3179 3180 3181 3182 3182 3183 3183 3184 3184 3185 3185 3185 3186 3186 3187 3187 3187 3187 3188 3189 3189 3190 3190 3189 3188 3188 3189 3189 3188 3188 3189 3189 3189 3189 3188 3188 3188 3188 3188 3188 3188
3111 3113 3115 3117 3118 3120 3122 3123 3125 3126 3128 3129 3131 3133 3134 3136 3137 3139 3140 3142 3144 3146 3148 3150 3152 3154 3156 3157 3158 3160 3161 3162 3164 3165 3166 3167 3168 3169 3170 3171 3172 3172 3173 3174 3175 3176 3177 3178 3179 3180 3181 3181 3182 3182 3183 3183 3184 3184 3185 3185 3185 3186 3186 3186 3187 3187 3188 3188 3188 3189 3187 3186 3188 3188 3187 3187 3187 3187 3187 3187 3187 3186 3186 3186 3186 3186 3186 3186
3109 3111 3113 3115 3116 3118 3120 3122 3124 3125 3127 3128 3130 3131 3133 3135 3136 3138 3140 3141 3143 3145 3147 3149 3151 3153 3154 3156 3157 3158 3160 3161 3162 3164 3165 3166 3167 3168 3169 3170 3171 3172 3172 3173 3174 3175 3176 3177 3178 3179 3180 3180 3181 3181 3182 3182 3182 3183 3184 3184 3184 3185 3185 3185 3186 3186 3186 3187 3187 3187 3185 3184 3186 3186 3185 3186 3185 3185 3185 3185 3184 3184 3184 3184 3183 3183 3183 3183
3107 3109 3111 3113 3115 3117 3118 3120 3122 3124 3125 3127 3128 3130 3132 3134 3135 3137 3139 3140 3142 3144 3146 3148 3149 3151 3153 3154 3155 3157 3158 3160 3161 3162 3163 3164 3166 3167 3168 3169 3170 3171 3171 3172 3173 3175 3175 3176 3177 3178 3179 3179 3180 3180 3181 3181 3181 3182 3182 3182 3182 3183 3184 3184 3184 3184 3185 3185 3185 3185 3183 3182 3184 3184 3184 3184 3183 3183 3183 3183 3182 3182 3181 3181 3181 3181 3181 3181
3106 3108 3109 3111 3113 3115 3117 3119 3120 3122 3124 3126 3127 3129 3130 3132 3134 3136 3138 3139 3141 3143 3145 3146 3148 3150 3152 3152 3153 3155 3157 3158 3160 3161 3162 3163 3164 3166 3167 3168 3169 3170 3171 3171 3172 3173 3174 3175 3176 3177 3178 3178 3179 3179 3180 3180 3180 3180 3180 3180 3181 3182 3183 3183 3183 3183 3184 3183 3183 3183 3180 3180 3182 3183 3182 3182 3181 3180 3180 3180 3180 3179 3179 3178 3178 3178 3178 3179
3104 3106 3108 3109 3111 3113 3115 3117 3119 3121 3122 3124 3126 3128 3129 3131 3133 3135 3136 3138 3140 3142 3143 3145 3146 3149 3149 3149 3151 3154 3156 3157 3158 3160 3161 3162 3163 3164 3165 3167 3168 3169 3170 3170 3171 3172 3173 3174 3175 3176 3176 3176 3177 3177 3178 3178 3178 3178 3179 3179 3180 3181 3181 3182 3182 3182 3182 3181 3181 3180 3178 3177 3180 3181 3181 3180 3179 3177 3177 3177 3177 3176 3176 3176 3176 3175 3175 3175
3103 3105 3106 3108 3109 3111 3113 3115 3117 3119 3121 3123 3124 3126 3128 3130 3131 3133 3135 3136 3138 3140 3141 3143 3144 3146 3147 3148 3151 3152 3154 3155 3156 3158 3159 3160 3162 3163 3164 3165 3166 3167 3168 3169 3170 3171 3172 3172 3173 3174 3174 3175 3175 3176 3176 3176 3176 3177 3177 3178 3179 3179 3180 3180 3181 3180 3180 3180 3179 3178 3176 3175 3177 3178 3178 3178 3176 3174 3174 3174 3174 3174 3174 3174 3173 3173 3172 3172
3102 3103 3105 3106 3108 3109 3111 3113 3115 3117 3119 3121 3123 3125 3126 3128 3130 3131 3133 3135 3136 3138 3140 3141 3143 3144 3146 3148 3149 3151 3152 3153 3154 3156 3157 3159 3160 3161 3163 3164 3165 3166 3167 3168 3169 3169 3170 3171 3171 3172 3173 3174 3174 3175 3174 3174 3175 3175 3176 3177 3177 3178 3179 3179 3179 3179 3179 3178 3176 3176 3175 3172 3173 3175 3176 3176 3174 3171 3171 3171 3171 3171 3171 3171 3170 3170 3169 3169
3100 3102 3103 3105 3106 3108 3110 3111 3113 3115 3117 3119 3121 3123 3124 3126 3128 3130 3131 3133 3135 3136 3138 3140 3141 3143 3144 3146 3147 3149 3150 3151 3152 3154 3155 3157 3158 3160 3161 3162 3163 3164 3165 3166 3167 3168 3169 3169 3170 3171 3172 3172 3173 3173 3172 3173 3174 3174 3175 3176 3176 3177 3177 3177 3177 3177 3177 3176 3174 3174 3172 3170 3171 3172 3172 3173 3171 3169 3169 3169 3168 3168 3168 3168 3167 3167 3167 3166
3098 3100 3101 3103 3105 3107 3108 3110 3112 3114 3116 3118 3119 3121 3123 3125 3127 3128 3130 3132 3133 3134 3136 3138 3139 3141 3142 3144 3145 3146 3148 3149 3150 3152 3153 3155 3156 3157 3158 3160 3161 3162 3163 3165 3165 3166 3167 3167 3169 3169 3170 3170 3171 3171 3171 3172 3172 3173 3174 3175 3175 3176 3176 3176 3176 3175 3176 3174 3172 3172 3170 3167 3168 3169 3169 3169 3168 3167 3167 3166 3165 3165 3165 3165 3165 3164 3163 3163
3094 3097 3099 3101 3103 3105 3106 3108 3110 3112 3114 3116 3118 3120 3122 3124 3125 3127 3129 3130 3131 3132 3134 3135 3137 3139 3140 3142 3143 3145 3146 3147 3148 3149 3151 3152 3154 3155 3156 3158 3159 3160 3161 3162 3163 3164 3164 3166 3167 3167 3168 3168 3169 3169 3170 3170 3171 3172 3172 3173 3174 3174 3175 3174 3174 3174 3173 3172 3171 3169 3166 3164 3165 3165 3165 3166 3164 3163 3164 3163 3162 3163 3162 3162 3162 3161 3160 3160
3091 3093 3096 3098 3101 3103 3104 3107 3109 3110 3112 3114 3116 3118 3120 3122 3124 3125 3127 3128 3128 3129 3131 3133 3134 3136 3138 3140 3141 3142 3143 3145 3146 3147 3149 3150 3152 3153 3154 3156 3157 3158 3159 3160 3161 3162 3162 3164 3165 3165 3166 3166 3167 3168 3168 3169 3170 3170 3171 3172 3173 3173 3173 3173 3173 3172 3171 3170 3169 3168 3163 3159 3161 3161 3161 3162 3161 3160 3161 3160 3160 3160 3160 3160 3158 3158 3157 3157
3088 3090 3092 3095 3098 3100 3103 3105 3106 3108 3110 3112 3114 3116 3118 3120 3122 3124 3126 3126 3126 3126 3128 3130 3131 3133 3135 3137 3138 3139 3141 3142 3144 3145 3147 3148 3149 3151 3152 3153 3154 3154 3156 3158 3159 3159 3160 3162 3162 3163 3163 3164 3165 3166 3167 3168 3169 3169 3170 3171 3172 3172 3171 3171 3171 3170 3169 3168 3167 3167 3163 3156 3156 3157 3157 3158 3157 3157 3157 3156 3157 3158 3157 3156 3155 3155 3155 3154
3085 3087 3088 3091 3094 3098 3100 3102 3104 3107 3108 3110 3112 3114 3116 3118 3120 3122 3124 3124 3122 3122 3125 3126 3128 3129 3131 3132 3134 3137 3139 3139 3141 3143 3144 3145 3147 3148 3149 3150 3151 3152 3154 3156 3157 3156 3156 3159 3160 3161 3161 3162 3163 3164 3166 3167 3168 3168 3169 3170 3171 3170 3170 3170 3170 3170 3168 3166 3164 3165 3164 3157 3152 3153 3153 3154 3154 3153 3154 3153 3154 3155 3154 3153 3152 3152 3152 3151
3080 3083 3086 3087 3090 3094 3097 3098 3101 3104 3105 3108 3110 3112 3114 3116 3118 3120 3122 3124 3118 3117 3121 3123 3123 3125 3126 3129 3132 3135 3135 3134 3138 3140 3141 3143 3144 3145 3146 3147 3149 3151 3153 3154 3153 3152 3153 3156 3158 3158 3159 3160 3161 3163 3165 3166 3166 3166 3167 3169 3169 3168 3169 3169 3169 3169 3166 3165 3162 3160 3162 3158 3148 3147 3150 3150 3149 3149 3150 3151 3151 3151 3151 3150 3150 3149 3149 3148
3077 3080 3083 3085 3087 3091 3093 3096 3099 3101 3103 3106 3107 3110 3112 3113 3116 3118 3121 3122 3114 3111 3116 3117 3119 3121 3123 3126 3129 3131 3130 3131 3135 3137 3138 3141 3142 3143 3144 3145 3148 3149 3151 3152 3150 3149 3152 3155 3156 3156 3157 3157 3159 3162 3164 3164 3165 3164 3165 3167 3167 3167 3168 3167 3168 3167 3165 3164 3159 3155 3160 3157 3141 3138 3145 3145 3144 3145 3146 3148 3148 3148 3148 3147 3147 3147 3146 3146
3075 3077 3080 3082 3085 3087 3091 3093 3096 3098 3100 3103 3105 3107 3109 3112 3114 3115 3119 3118 3109 3107 3110 3112 3115 3117 3119 3122 3125 3126 3127 3129 3132 3134 3136 3138 3139 3141 3142 3143 3146 3147 3148 3149 3148 3149 3151 3152 3154 3154 3155 3155 3157 3160 3161 3162 3162 3162 3164 3164 3165 3166 3166 3167 3166 3165 3165 3162 3155 3153 3159 3157 3137 3127 3137 3141 3139 3143 3144 3145 3146 3145 3146 3145 3145 3145 3143 3143
3071 3074 3076 3079 3081 3084 3088 3091 3093 3096 3098 3100 3102 3104 3107 3109 3110 3113 3116 3111 3104 3104 3107 3108 3110 3112 3114 3118 3121 3123 3124 3126 3129 3132 3134 3135 3136 3138 3140 3142 3144 3144 3145 3146 3146 3146 3148 3150 3151 3151 3152 3153 3156 3158 3158 3160 3160 3160 3161 3162 3164 3165 3164 3165 3163 3164 3166 3158 3152 3152 3156 3159 3141 3121 3127 3134 3135 3140 3142 3142 3143 3143 3143 3142 3142 3142 3141 3140
3068 3070 3073 3074 3077 3081 3084 3087 3091 3093 3095 3097 3099 3101 3103 3105 3107 3109 3107 3102 3100 3101 3102 3105 3107 3108 3111 3114 3116 3119 3121 3123 3126 3129 3130 3132 3134 3135 3136 3138 3140 3142 3143 3142 3142 3143 3145 3147 3148 3148 3150 3151 3153 3154 3156 3157 3157 3158 3159 3161 3164 3164 3163 3164 3161 3163 3164 3154 3150 3151 3153 3159 3143 3120 3121 3129 3131 3136 3138 3139 3140 3139 3139 3140 3140 3140 3139 3137
3064 3067 3069 3071 3074 3076 3079 3082 3086 3088 3090 3092 3095 3095 3097 3099 3101 3100 3098 3098 3099 3097 3097 3102 3103 3105 3109 3111 3114 3116 3118 3119 3122 3125 3127 3128 3130 3130 3132 3134 3136 3139 3139 3138 3139 3140 3141 3142 3144 3146 3147 3148 3149 3151 3153 3154 3155 3156 3158 3160 3162 3162 3162 3161 3158 3159 3158 3151 3149 3150 3153 3151 3133 3118 3122 3127 3128 3132 3133 3133 3135 3135 3137 3138 3138 3137 3136 3135
3061 3063 3065 3067 3070 3072 3074 3078 3081 3083 3085 3088 3090 3089 3090 3092 3091 3091 3091 3094 3095 3092 3094 3098 3100 3103 3107 3109 3111 3113 3115 3117 3119 3122 3123 3125 3126 3127 3129 3131 3132 3134 3133 3134 3136 3138 3138 3139 3140 3141 3141 3143 3145 3147 3148 3150 3152 3153 3154 3156 3157 3159 3160 3157 3155 3156 3153 3149 3147 3150 3152 3142 3122 3116 3122 3124 3126 3128 3128 3130 3131 3133 3134 3135 3135 3134 3133 3133
3058 3060 3061 3063 3066 3069 3071 3074 3077 3080 3082 3083 3085 3086 3086 3085 3084 3086 3088 3089 3091 3091 3093 3095 3097 3101 3104 3105 3108 3110 3112 3114 3115 3118 3120 3121 3123 3123 3125 3127 3128 3130 3131 3133 3134 3135 3135 3133 3132 3135 3136 3138 3140 3143 3145 3147 3149 3150 3150 3153 3152 3152 3152 3150 3150 3151 3148 3146 3146 3149 3147 3132 3117 3117 3120 3121 3123 3125 3126 3128 3129 3130 3130 3131 3131 3131 3131 3130
3055 3057 3058 3060 3062 3065 3068 3071 3074 3077 3078 3079 3080 3080 3080 3079 3079 3081 3083 3085 3089 3090 3091 3094 3097 3099 3101 3102 3105 3107 3109 3110 3111 3114 3116 3117 3117 3118 3119 3121 3124 3126 3128 3129 3129 3130 3130 3127 3127 3131 3133 3135 3137 3139 3142 3144 3146 3146 3147 3149 3146 3144 3145 3146 3146 3145 3146 3146 3145 3143 3135 3121 3115 3115 3116 3119 3120 3122 3125 3125 3125 3126 3126 3126 3127 3127 3128 3127
3051 3053 3055 3056 3059 3062 3064 3067 3070 3073 3074 3075 3074 3073 3073 3074 3075 3076 3079 3082 3086 3087 3089 3092 3094 3096 3097 3099 3101 3103 3106 3107 3108 3110 3112 3113 3114 3114 3115 3117 3119 3121 3122 3123 3123 3125 3126 3123 3124 3128 3130 3131 3134 3135 3138 3140 3141 3141 3142 3141 3139 3140 3143 3146 3145 3143 3146 3146 3138 3134 3127 3118 3116 3112 3110 3114 3116 3118 3121 3121 3122 3123 3122 3123 3123 3123 3124 3124
3047 3049 3051 3053 3055 3058 3061 3063 3066 3068 3069 3069 3069 3068 3069 3071 3072 3074 3076 3079 3082 3084 3086 3088 3090 3092 3094 3095 3097 3099 3102 3104 3105 3107 3108 3110 3110 3109 3111 3112 3114 3115 3117 3119 3120 3120 3122 3121 3121 3124 3125 3127 3130 3132 3133 3134 3136 3136 3135 3134 3136 3140 3142 3143 3144 3142 3143 3141 3132 3127 3122 3119 3117 3110 3105 3110 3113 3114 3117 3118 3119 3119 3119 3120 3120 3120 3120 3119
3043 3045 3048 3050 3052 3055 3058 3060 3062 3064 3065 3065 3065 3066 3066 3067 3070 3072 3074 3077 3078 3080 3082 3085 3087 3089 3091 3092 3093 3096 3098 3100 3101 3103 3104 3105 3105 3104 3106 3108 3110 3111 3113 3117 3118 3118 3120 3120 3119 3120 3122 3124 3126 3128 3128 3129 3130 3130 3130 3132 3135 3138 3138 3139 3140 3138 3137 3136 3129 3122 3118 3116 3113 3105 3102 3108 3111 3112 3114 3114 3114 3115 3116 3117 3117 3117 3116 3115
3039 3042 3043 3046 3049 3051 3054 3057 3059 3060 3061 3060 3061 3062 3062 3063 3066 3069 3071 3074 3075 3076 3079 3082 3084 3086 3088 3090 3091 3092 3094 3095 3096 3098 3099 3101 3101 3100 3103 3105 3106 3108 3110 3113 3114 3115 3117 3118 3117 3117 3119 3121 3122 3122 3121 3121 3124 3126 3128 3131 3132 3133 3133 3133 3133 3131 3130 3129 3125 3120 3115 3109 3103 3101 3104 3108 3109 3109 3110 3110 3111 3112 3113 3114 3114 3114 3113 3112
3035 3037 3039 3042 3045 3047 3050 3053 3055 3055 3055 3055 3056 3057 3058 3059 3062 3065 3068 3071 3073 3074 3076 3078 3080 3082 3084 3086 3088 3089 3091 3091 3093 3094 3095 3096 3097 3097 3099 3102 3103 3105 3107 3109 3110 3112 3114 3115 3114 3113 3115 3116 3115 3114 3115 3116 3120 3123 3125 3126 3127 3128 3129 3128 3127 3126 3126 3125 3123 3121 3114 3102 3098 3101 3104 3105 3106 3106 3107 3108 3109 3110 3111 3111 3111 3110 3109 3109
3031 3033 3034 3038 3041 3042 3046 3048 3049 3049 3049 3050 3051 3054 3055 3055 3058 3062 3065 3067 3070 3071 3073 3075 3077 3079 3081 3083 3084 3086 3088 3089 3090 3091 3091 3092 3093 3093 3095 3098 3100 3102 3103 3104 3106 3108 3109 3110 3110 3109 3109 3109 3109 3110 3113 3114 3116 3118 3119 3119 3119 3120 3122 3124 3122 3121 3122 3122 3121 3120 3113 3099 3094 3100 3102 3102 3104 3103 3104 3105 3106 3107 3108 3108 3107 3107 3107 3105
3027 3028 3030 3034 3036 3038 3041 3042 3043 3045 3044 3045 3048 3050 3051 3052 3054 3057 3060 3064 3066 3068 3070 3072 3073 3075 3077 3079 3081 3083 3084 3086 3086 3087 3088 3088 3089 3090 3092 3095 3097 3098 3100 3100 3101 3103 3105 3105 3105 3104 3103 3104 3105 3108 3110 3111 3113 3115 3114 3114 3115 3114 3115 3117 3116 3116 3119 3119 3117 3118 3112 3096 3091 3097 3098 3098 3100 3100 3101 3102 3103 3104 3105 3105 3105 3104 3103 3103
3022 3024 3027 3030 3032 3034 3036 3037 3039 3040 3040 3042 3045 3046 3048 3050 3051 3054 3056 3059 3062 3064 3065 3067 3068 3071 3073 3075 3077 3079 3081 3083 3083 3084 3085 3085 3086 3088 3091 3093 3094 3095 3096 3097 3098 3100 3101 3101 3101 3101 3101 3102 3103 3105 3106 3108 3109 3109 3107 3108 3110 3110 3111 3113 3114 3114 3115 3114 3113 3115 3109 3093 3088 3094 3096 3096 3097 3097 3098 3100 3100 3101 3102 3102 3102 3101 3100 3101
3019 3021 3023 3025 3028 3030 3030 3031 3033 3035 3036 3039 3041 3042 3045 3047 3048 3050 3052 3055 3057 3059 3061 3063 3065 3068 3070 3072 3074 3076 3078 3079 3080 3081 3082 3082 3082 3085 3088 3090 3091 3092 3093 3094 3095 3097 3097 3097 3098 3099 3100 3100 3100 3101 3100 3100 3101 3101 3101 3104 3105 3106 3109 3110 3111 3112 3110 3108 3107 3107 3099 3088 3086 3090 3092 3093 3093 3093 3095 3097 3097 3098 3099 3099 3100 3098 3097 3098
3014 3016 3018 3021 3023 3024 3025 3026 3029 3031 3033 3035 3036 3038 3041 3042 3043 3046 3049 3051 3054 3056 3058 3059 3062 3065 3068 3070 3071 3073 3074 3076 3076 3077 3078 3079 3078 3079 3083 3086 3087 3088 3089 3090 3092 3093 3093 3093 3093 3094 3094 3093 3091 3091 3090 3091 3094 3096 3097 3099 3100 3102 3104 3104 3107 3108 3105 3101 3100 3097 3091 3085 3084 3087 3088 3089 3090 3090 3092 3094 3095 3096 3097 3097 3097 3097 3096 3096
3008 3010 3013 3016 3018 3019 3020 3023 3025 3026 3029 3031 3033 3034 3036 3038 3039 3042 3045 3048 3050 3052 3055 3056 3059 3062 3064 3065 3067 3068 3069 3071 3073 3073 3073 3073 3074 3075 3078 3081 3083 3084 3085 3086 3088 3089 3089 3089 3090 3089 3088 3085 3084 3085 3087 3089 3091 3093 3092 3093 3095 3097 3099 3101 3103 3101 3097 3096 3092 3088 3088 3084 3079 3081 3084 3085 3086 3088 3088 3090 3093 3095 3095 3095 3096 3096 3095 3093
3002 3005 3008 3010 3012 3014 3016 3018 3020 3021 3024 3026 3028 3029 3031 3033 3036 3038 3040 3043 3046 3048 3051 3052 3054 3057 3058 3061 3063 3064 3065 3067 3068 3068 3068 3069 3070 3072 3073 3076 3078 3080 3082 3083 3084 3085 3085 3084 3085 3085 3084 3082 3081 3084 3087 3088 3088 3089 3089 3090 3092 3093 3095 3096 3095 3092 3093 3092 3084 3081 3085 3082 3072 3073 3080 3082 3083 3085 3086 3088 3090 3092 3093 3093 3094 3094 3092 3091
2997 2999 3003 3006 3006 3008 3010 3012 3014 3016 3019 3021 3023 3025 3027 3029 3032 3034 3036 3039 3041 3044 3047 3048 3049 3051 3053 3056 3058 3059 3061 3063 3063 3063 3064 3065 3066 3068 3069 3071 3074 3076 3078 3079 3080 3081 3080 3078 3078 3080 3079 3078 3078 3081 3084 3085 3084 3085 3086 3086 3088 3089 3090 3089 3087 3086 3087 3084 3079 3077 3081 3077 3069 3068 3074 3079 3080 3081 3082 3084 3086 3087 3088 3089 3090 3090 3089 3090
2992 2994 2998 3000 3001 3003 3005 3008 3011 3012 3014 3017 3019 3020 3022 3024 3027 3029 3032 3035 3036 3038 3041 3042 3043 3045 3048 3051 3054 3054 3055 3057 3058 3058 3060 3062 3063 3065 3066 3067 3069 3071 3074 3075 3075 3076 3075 3073 3073 3075 3075 3075 3075 3076 3079 3080 3080 3080 3081 3082 3084 3084 3084 3083 3080 3079 3079 3078 3078 3076 3073 3070 3066 3066 3069 3073 3076 3076 3076 3077 3079 3081 3082 3083 3084 3084 3085 3086
2986 2989 2992 2995 2996 2999 3001 3004 3007 3008 3011 3014 3015 3016 3018 3020 3022 3025 3028 3029 3031 3033 3036 3037 3039 3042 3044 3046 3048 3048 3050 3053 3054 3055 3057 3059 3059 3060 3062 3063 3065 3067 3069 3070 3071 3071 3070 3070 3071 3073 3073 3071 3070 3071 3073 3073 3074 3075 3076 3077 3079 3078 3077 3074 3072 3072 3074 3074 3073 3073 3070 3063 3058 3062 3066 3068 3069 3070 3069 3070 3072 3074 3076 3077 3077 3077 3078 3079
2981 2985 2988 2990 2992 2995 2997 2999 3002 3004 3006 3008 3010 3012 3013 3015 3018 3021 3023 3024 3027 3030 3032 3034 3036 3039 3040 3042 3043 3044 3047 3050 3051 3052 3055 3055 3055 3057 3058 3059 3062 3063 3064 3065 3066 3065 3066 3067 3068 3069 3069 3065 3063 3065 3066 3067 3069 3069 3070 3070 3070 3068 3066 3065 3065 3067 3068 3067 3067 3070 3067 3056 3051 3059 3064 3063 3064 3064 3063 3064 3067 3068 3069 3070 3069 3069 3071 3071
2976 2979 2982 2985 2988 2990 2992 2994 2996 2998 3000 3003 3005 3007 3009 3011 3014 3017 3019 3021 3023 3026 3028 3030 3033 3034 3035 3036 3038 3040 3043 3045 3046 3047 3049 3050 3051 3052 3053 3055 3056 3058 3058 3060 3060 3060 3060 3062 3063 3064 3063 3059 3057 3059 3061 3064 3065 3061 3060 3059 3057 3057 3059 3061 3062 3061 3060 3061 3063 3063 3058 3052 3053 3058 3058 3056 3057 3058 3057 3059 3061 3061 3062 3062 3061 3060 3062 3062